Date String (YYYY-MM-DD hh:mm:ss) UTC,Instrument flags,Ambient pressure (hPa),Sample flow (lpm),Bypass flow (lpm),Sample temperature (°C),Ambient temperature (°C),ASC tube jacket temperature (°C),LED temperature (°C),Box temperature (°C),Sample RH (%),Span deviation,Mass concentration (μg/m³),Mass concentration (μg/m³),Mass concentration (μg/m³)
DateTimeUTC,F1_M11,P_M11,Q1_M11,Q2_M11,T1_M11,T2_M11,T3_M11,T4_M11,T5_M11,U1_M11,ZSPAN_M11,X0_M11,X2_M11,X1_M11
2022-09-14 19:00:00,,0823.0,5.00,0.00,29.9,28.3,00.0,38.6,31.8,20.5,0002.1,0012.14,0006.21,0005.52
2022-09-14 19:01:00,,0823.0,5.00,0.00,29.9,28.5,00.0,38.6,31.8,20.6,0002.0,0012.58,0006.20,0005.49
2022-09-14 19:02:00,,0823.0,5.00,0.00,30.0,28.6,00.0,38.6,31.8,20.8,0002.3,0012.26,0006.15,0005.44
2022-09-14 19:03:00,,0823.0,5.01,0.00,30.0,28.7,00.0,38.7,31.9,21.4,0002.5,0011.51,0006.12,0005.40
2022-09-14 19:04:00,,0822.9,4.99,0.00,30.0,28.8,00.0,38.7,31.9,21.4,0002.5,0011.14,0006.05,0005.36
2022-09-14 19:05:00,,0823.0,5.00,0.00,30.0,29.0,00.0,38.7,32.0,21.3,0002.5,0010.75,0006.03,0005.33
2022-09-14 19:06:00,,0822.9,5.01,0.00,30.1,29.0,00.0,38.7,32.0,21.3,0002.1,0010.67,0005.96,0005.29
2022-09-14 19:07:00,,0822.9,5.00,0.00,30.1,29.1,00.0,38.8,32.1,21.0,0001.9,0011.19,0005.94,0005.27
2022-09-14 19:08:00,,0822.9,5.00,0.00,30.2,28.5,00.0,38.8,32.1,21.0,0002.2,0011.18,0005.92,0005.26
2022-09-14 19:09:00,,0822.9,5.00,0.00,30.1,27.0,00.0,38.7,32.0,21.3,0001.5,0011.21,0005.92,0005.25
2022-09-14 19:10:00,,0822.9,5.00,0.00,30.1,26.7,00.0,38.7,31.9,21.5,0000.5,0011.26,0005.92,0005.24
2022-09-14 19:11:00,,0822.9,5.01,0.00,30.0,26.9,00.0,38.7,31.7,21.6,0000.5,0011.14,0005.89,0005.21
2022-09-14 19:12:00,,0822.9,4.99,0.00,29.9,27.2,00.0,38.6,31.6,21.9,0000.8,0011.11,0005.88,0005.21
2022-09-14 19:13:00,,0822.9,5.00,0.00,29.9,27.6,00.0,38.6,31.7,21.8,0000.9,0011.83,0005.95,0005.22
2022-09-14 19:14:00,,0822.9,5.00,0.00,29.9,27.9,00.0,38.6,31.7,22.0,0000.7,0012.20,0006.00,0005.23
2022-09-14 19:15:00,,0822.9,5.01,0.00,29.9,28.1,00.0,38.6,31.7,21.9,0000.2,0012.27,0006.05,0005.24
2022-09-14 19:16:00,,0822.9,4.98,0.00,29.9,28.3,00.0,38.6,31.8,22.4,-000.3,0012.76,0006.04,0005.23
2022-09-14 19:17:00,,0823.0,5.01,0.00,29.9,28.5,00.0,38.6,31.8,21.9,-000.2,0013.49,0006.07,0005.23
2022-09-14 19:18:00,,0823.0,4.99,0.00,30.0,28.7,00.0,38.6,31.9,21.5,0000.1,0012.97,0006.07,0005.22
2022-09-14 19:19:00,,0822.9,5.00,0.00,30.0,28.7,00.0,38.7,31.9,21.8,-000.1,0013.64,0006.07,0005.21
2022-09-14 19:20:00,,0822.9,4.99,0.00,30.0,28.9,00.0,38.7,31.9,21.7,-000.1,0013.87,0006.06,0005.20
2022-09-14 19:21:00,,0823.0,5.02,0.00,30.1,29.0,00.0,38.7,32.0,21.9,0000.4,0014.10,0006.03,0005.18
2022-09-14 19:22:00,,0822.9,5.00,0.00,30.1,29.1,00.0,38.7,32.0,22.1,0000.3,0013.92,0006.02,0005.18
2022-09-14 19:23:00,,0823.0,5.00,0.00,30.1,28.9,00.0,38.7,32.1,22.1,0000.4,0013.43,0006.01,0005.19
2022-09-14 19:24:00,,0822.9,5.00,0.00,30.2,27.6,00.0,38.7,32.0,22.0,0000.1,0012.84,0005.98,0005.19
2022-09-14 19:25:00,,0822.9,5.00,0.00,30.1,26.7,00.0,38.7,31.9,22.2,-000.1,0013.13,0005.97,0005.18
2022-09-14 19:26:00,,0822.9,5.00,0.00,30.1,26.8,00.0,38.7,31.9,22.2,0000.5,0013.43,0006.00,0005.19
2022-09-14 19:27:00,,0822.9,5.01,0.00,30.0,27.1,00.0,38.6,31.7,22.1,0000.8,0012.96,0006.05,0005.20
2022-09-14 19:28:00,,0822.9,5.00,0.00,29.9,27.5,00.0,38.6,31.7,21.8,0000.8,0012.60,0006.06,0005.22
2022-09-14 19:29:00,,0822.8,5.01,0.00,29.9,27.8,00.0,38.6,31.7,21.2,0000.8,0012.55,0006.08,0005.24
2022-09-14 19:30:00,,0822.8,4.98,0.00,29.9,28.0,00.0,38.6,31.7,20.9,0000.8,0012.48,0006.10,0005.26
2022-09-14 19:31:00,,0822.8,5.00,0.00,29.9,28.2,00.0,38.6,31.7,21.1,0000.7,0013.54,0006.11,0005.28
2022-09-14 19:32:00,,0822.8,4.99,0.00,30.0,28.4,00.0,38.6,31.8,21.4,0001.1,0013.57,0006.13,0005.28
2022-09-14 19:33:00,,0822.8,5.01,0.00,30.0,28.6,00.0,38.6,31.9,21.4,0001.3,0013.75,0006.16,0005.29
2022-09-14 19:34:00,,0822.8,4.99,0.00,30.0,28.8,00.0,38.7,31.9,21.9,0001.2,0014.23,0006.17,0005.29
2022-09-14 19:35:00,,0822.8,5.00,0.00,30.0,28.9,00.0,38.7,32.0,21.9,0001.0,0014.17,0006.16,0005.30
2022-09-14 19:36:00,,0822.8,4.99,0.00,30.1,28.9,00.0,38.7,32.0,21.6,0000.7,0014.15,0006.16,0005.31
2022-09-14 19:37:00,,0822.7,5.00,0.00,30.1,28.0,00.0,38.7,32.0,21.4,0000.3,0014.07,0006.10,0005.31
2022-09-14 19:38:00,,0822.7,4.99,0.00,30.0,26.8,00.0,38.7,31.8,21.5,0000.0,0013.79,0006.04,0005.31
2022-09-14 19:39:00,,0822.7,4.98,0.00,30.0,26.7,00.0,38.6,31.8,21.9,0000.0,0013.44,0006.04,0005.31
2022-09-14 19:40:00,,0822.7,5.00,0.00,29.9,27.0,00.0,38.6,31.7,21.1,0000.0,0013.94,0006.07,0005.31
2022-09-14 19:41:00,,0822.6,5.00,0.00,29.9,27.3,00.0,38.6,31.6,20.5,0000.0,0014.35,0006.11,0005.30
2022-09-14 19:42:00,,0822.6,5.01,0.00,29.9,27.6,00.0,38.6,31.6,20.3,0000.0,0012.61,0006.08,0005.27
2022-09-14 19:43:00,,0822.6,4.98,0.00,29.9,27.9,00.0,38.6,31.6,20.8,0000.0,0012.10,0006.09,0005.28
2022-09-14 19:44:00,,0822.6,5.00,0.00,29.9,28.1,00.0,38.5,31.7,20.5,0000.0,0012.29,0006.07,0005.27
2022-09-14 19:45:00,,0822.6,4.99,0.00,29.9,28.4,00.0,38.6,31.8,20.8,0000.0,0012.06,0006.06,0005.26
2022-09-14 19:46:00,,0822.6,5.02,0.00,29.9,28.5,00.0,38.6,31.8,20.9,0000.0,0012.96,0006.06,0005.25
2022-09-14 19:47:00,,0822.6,4.99,0.00,29.9,28.7,00.0,38.6,31.8,20.0,0000.0,0012.56,0006.02,0005.23
2022-09-14 19:48:00,,0822.6,4.99,0.00,30.0,28.8,00.0,38.6,31.9,19.8,0000.0,0012.05,0006.00,0005.21
2022-09-14 19:49:00,,0822.6,5.01,0.00,30.0,28.9,00.0,38.6,32.0,20.0,0000.0,0012.81,0005.98,0005.18
2022-09-14 19:50:00,,0822.6,4.99,0.00,30.0,28.9,00.0,38.6,32.0,20.0,0000.5,0013.57,0005.96,0005.16
2022-09-14 19:51:00,,0822.5,5.01,0.00,30.1,27.9,00.0,38.6,32.0,19.6,0000.0,0013.23,0005.91,0005.12
2022-09-14 19:52:00,,0822.5,5.02,0.00,30.0,26.9,00.0,38.6,31.8,20.0,0000.5,0012.78,0005.84,0005.10
2022-09-14 19:53:00,,0822.5,5.01,0.00,30.0,26.8,00.0,38.6,31.8,19.9,0001.3,0012.67,0005.84,0005.09
2022-09-14 19:54:00,,0822.4,5.00,0.00,29.9,27.1,00.0,38.6,31.6,20.2,0001.1,0012.81,0005.87,0005.09
2022-09-14 19:55:00,,0822.5,5.00,0.00,29.9,27.4,00.0,38.5,31.6,20.7,0001.1,0013.39,0005.82,0005.08
2022-09-14 19:56:00,,0822.5,5.00,0.00,29.9,27.7,00.0,38.5,31.6,20.8,0001.2,0013.20,0005.84,0005.09
2022-09-14 19:57:00,,0822.4,5.01,0.00,29.9,28.0,00.0,38.5,31.7,21.0,0000.6,0012.72,0005.86,0005.11
2022-09-14 19:58:00,,0822.4,4.98,0.00,29.9,28.2,00.0,38.5,31.7,20.8,0001.0,0012.57,0005.89,0005.14
2022-09-14 19:59:00,,0822.4,5.02,0.00,29.9,28.4,00.0,38.6,31.8,20.4,0001.2,0012.86,0005.93,0005.16
